FW4804 Weather Reports


time (UTC)temp
C
wind
direction
speed
KPH
gust
KPH
rain 1hr
cm
rain 24hr
cm
rain mn
cm
humidity
%
barometer
mb
20260507161005 19 317 3.2 9.7 0.00 0.00 0.00 48 1018.0
20260507160010 20 241 3.2 6.4 0.00 0.00 0.00 47 1017.9
20260507155505 20 322 4.8 6.4 0.00 0.00 0.00 46 1017.9
20260507154505 20 5 0.0 4.8 0.00 0.00 0.00 45 1017.9
20260507154006 20 311 1.6 4.8 0.00 0.00 0.00 45 1018.0
20260507153005 20 340 3.2 8.0 0.00 0.00 0.00 45 1017.9
20260507152506 20 319 3.2 8.0 0.00 0.00 0.00 44 1017.8
20260507152005 20 318 3.2 6.4 0.00 0.00 0.00 44 1017.7
20260507151505 20 332 4.8 6.4 0.00 0.00 0.00 44 1017.8
20260507151005 21 312 4.8 6.4 0.00 0.00 0.00 44 1017.8
20260507150508 20 181 3.2 6.4 0.00 0.00 0.00 45 1017.6
20260507145505 20 313 6.4 8.0 0.00 0.00 0.00 44 1017.7
20260507145005 20 287 8.0 12.9 0.00 0.00 0.00 44 1017.6
20260507144505 20 280 8.0 12.9 0.00 0.00 0.00 42 1017.7
20260507143505 21 213 3.2 6.4 0.00 0.00 0.00 43 1017.8
20260507143005 21 232 3.2 4.8 0.00 0.00 0.00 41 1017.8
20260507142505 21 258 3.2 6.4 0.00 0.00 0.00 41 1017.6
20260507142005 22 300 3.2 6.4 0.00 0.00 0.00 41 1017.6
20260507141507 22 335 3.2 6.4 0.00 0.00 0.00 38 1017.6
20260507141021 22 10 4.8 6.4 0.00 0.00 0.00 36 1017.3
20260507140509 22 351 6.4 9.7 0.00 0.00 0.00 41 1017.2
20260507135508 22 142 3.2 6.4 0.00 0.00 0.00 42 1017.3
20260507135005 22 135 1.6 4.8 0.00 0.00 0.00 41 1017.5
20260507134505 22 111 1.6 4.8 0.00 0.00 0.00 35 1017.5
20260507134005 23 126 1.6 6.4 0.00 0.00 0.00 35 1017.5
20260507133507 23 154 4.8 6.4 0.00 0.00 0.00 37 1017.3
20260507133005 23 162 6.4 6.4 0.00 0.00 0.00 36 1017.2
20260507132506 23 238 4.8 6.4 0.00 0.00 0.00 37 1017.1
20260507132005 23 154 6.4 9.7 0.00 0.00 0.00 36 1017.0
20260507131505 24 146 8.0 9.7 0.00 0.00 0.00 34 1016.9
20260507131008 25 136 6.4 9.7 0.00 0.00 0.00 33 1016.7
20260507130507 25 110 6.4 9.7 0.00 0.00 0.00 33 1016.9
20260507130006 25 32 6.4 9.7 0.00 0.00 0.00 33 1016.8
20260507125005 25 31 1.6 6.4 0.00 0.00 0.00 34 1016.7
20260507124005 25 53 3.2 6.4 0.00 0.00 0.00 33 1016.7
20260507123505 25 3 4.8 6.4 0.00 0.00 0.00 30 1016.7
20260507122507 24 120 6.4 9.7 0.00 0.00 0.00 32 1017.0
20260507121505 24 293 3.2 6.4 0.00 0.00 0.00 32 1017.1
20260507121005 23 283 4.8 12.9 0.00 0.00 0.00 33 1017.4
20260507120007 23 257 4.8 12.9 0.00 0.00 0.00 33 1017.0
20260507115505 22 273 3.2 6.4 0.00 0.00 0.00 32 1017.3
20260507115005 21 258 1.6 4.8 0.00 0.00 0.00 38 1017.2
20260507114505 22 257 3.2 6.4 0.00 0.00 0.00 34 1017.0
20260507114005 22 253 3.2 6.4 0.00 0.00 0.00 32 1017.4
20260507113505 22 247 1.6 4.8 0.00 0.00 0.00 32 1017.2
20260507113005 23 286 1.6 4.8 0.00 0.00 0.00 32 1017.1
20260507112005 22 284 3.2 6.4 0.00 0.00 0.00 28 1017.2
20260507111506 22 297 1.6 6.4 0.00 0.00 0.00 30 1017.1
20260507111005 22 281 0.0 3.2 0.00 0.00 0.00 28 1017.1
20260507110505 22 278 0.0 3.2 0.00 0.00 0.00 33 1017.3
20260507110005 22 0 0.0 0.0 0.00 0.00 0.00 38 1017.4
20260507105505 22 0 0.0 0.0 0.00 0.00 0.00 42 1017.5
20260507105005 21 314 0.0 1.6 0.00 0.00 0.00 42 1017.6
20260507104506 21 249 0.0 1.6 0.00 0.00 0.00 38 1017.6
20260507104005 21 278 1.6 6.4 0.00 0.00 0.00 42 1017.7
20260507103505 20 274 4.8 6.4 0.00 0.00 0.00 41 1017.8
20260507103006 20 274 6.4 11.3 0.00 0.00 0.00 38 1017.9
20260507102505 20 290 8.0 11.3 0.00 0.00 0.00 35 1017.9
20260507102007 20 293 8.0 11.3 0.00 0.00 0.00 35 1017.8
20260507101507 20 289 6.4 11.3 0.00 0.00 0.00 35 1017.9
20260507101005 20 282 4.8 8.0 0.00 0.00 0.00 36 1017.9
20260507100508 20 279 4.8 6.4 0.00 0.00 0.00 36 1017.7
20260507100016 20 284 4.8 6.4 0.00 0.00 0.00 37 1017.9
20260507095509 20 278 3.2 6.4 0.00 0.00 0.00 33 1017.6
20260507095008 20 270 3.2 6.4 0.00 0.00 0.00 33 1017.6
20260507094506 20 279 1.6 4.8 0.00 0.00 0.00 32 1017.6
20260507093005 20 265 1.6 3.2 0.00 0.00 0.00 33 1017.4
20260507092505 20 270 0.0 3.2 0.00 0.00 0.00 34 1017.3
20260507092005 20 270 1.6 6.4 0.00 0.00 0.00 37 1017.4
20260507091005 20 253 0.0 3.2 0.00 0.00 0.00 34 1017.1
20260507090506 20 201 0.0 3.2 0.00 0.00 0.00 34 1017.2
20260507090006 20 265 0.0 1.6 0.00 0.00 0.00 39 1017.1
20260507085006 19 258 0.0 3.2 0.00 0.00 0.00 43 1017.3
20260507084505 19 0 0.0 0.0 0.00 0.00 0.00 43 1017.3
20260507084005 19 0 0.0 0.0 0.00 0.00 0.00 35 1017.4
20260507083505 18 0 0.0 0.0 0.00 0.00 0.00 46 1017.3
20260507083005 18 0 0.0 0.0 0.00 0.00 0.00 52 1017.2
20260507081505 17 0 0.0 0.0 0.00 0.00 0.00 50 1017.1
20260507081005 17 0 0.0 0.0 0.00 0.00 0.00 52 1017.2
20260507080505 17 0 0.0 0.0 0.00 0.00 0.00 47 1017.0
20260507080005 17 0 0.0 0.0 0.00 0.00 0.00 49 1017.1
20260507075505 17 0 0.0 0.0 0.00 0.00 0.00 50 1017.0
20260507075005 17 0 0.0 0.0 0.00 0.00 0.00 51 1016.9
20260507074505 17 0 0.0 0.0 0.00 0.00 0.00 50 1016.9
20260507074005 17 0 0.0 0.0 0.00 0.00 0.00 51 1016.9
20260507073505 16 0 0.0 0.0 0.00 0.00 0.00 53 1017.1
20260507073005 16 0 0.0 0.0 0.00 0.00 0.00 47 1017.3
20260507072505 16 0 0.0 0.0 0.00 0.00 0.00 53 1017.2
20260507072006 15 0 0.0 0.0 0.00 0.00 0.00 54 1017.1
20260507071507 15 0 0.0 0.0 0.00 0.00 0.00 57 1017.3
20260507071005 15 0 0.0 0.0 0.00 0.00 0.00 54 1017.3
20260507070505 15 0 0.0 0.0 0.00 0.00 0.00 51 1017.4
20260507070009 15 0 0.0 0.0 0.00 0.00 0.00 53 1017.2
20260507065505 15 0 0.0 0.0 0.00 0.00 0.00 55 1017.3
20260507065005 14 0 0.0 0.0 0.00 0.00 0.00 59 1017.2
20260507064505 13 0 0.0 0.0 0.00 0.00 0.00 63 1017.1
20260507064008 13 0 0.0 0.0 0.00 0.00 0.00 65 1017.1
20260507063505 12 0 0.0 0.0 0.00 0.00 0.00 65 1017.2
20260507063005 11 0 0.0 0.0 0.00 0.00 0.00 68 1017.4
20260507062505 11 0 0.0 0.0 0.00 0.00 0.00 72 1017.4
20260507062008 11 0 0.0 0.0 0.00 0.00 0.00 73 1017.5
20260507061505 10 0 0.0 0.0 0.00 0.00 0.00 76 1017.5
20260507061005 10 0 0.0 0.0 0.00 0.00 0.00 76 1017.6
20260507060005 10 0 0.0 0.0 0.00 0.00 0.00 79 1017.6
20260507055505 10 0 0.0 0.0 0.00 0.00 0.00 78 1017.8
20260507055005 9 0 0.0 0.0 0.00 0.00 0.00 79 1017.8
20260507054505 9 0 0.0 0.0 0.00 0.00 0.00 83 1017.7
20260507054006 9 0 0.0 0.0 0.00 0.00 0.00 84 1017.9
20260507053007 8 0 0.0 0.0 0.00 0.00 0.00 87 1017.8
20260507052505 8 0 0.0 0.0 0.00 0.00 0.00 87 1017.7
20260507052005 8 0 0.0 0.0 0.00 0.00 0.00 87 1017.8
20260507051506 7 0 0.0 0.0 0.00 0.00 0.00 88 1017.7
20260507051005 7 0 0.0 0.0 0.00 0.00 0.00 90 1017.5
20260507050506 7 0 0.0 0.0 0.00 0.00 0.00 91 1017.5
20260507050006 7 0 0.0 0.0 0.00 0.00 0.00 92 1017.6
20260507045505 7 0 0.0 0.0 0.00 0.00 0.00 96 1017.2
20260507045005 6 0 0.0 0.0 0.00 0.00 0.00 96 1017.2
20260507044507 6 0 0.0 0.0 0.00 0.00 0.00 95 1017.2
20260507044005 6 0 0.0 0.0 0.00 0.00 0.00 95 1017.3
20260507043520 6 0 0.0 0.0 0.00 0.00 0.00 95 1017.0
20260507043005 6 0 0.0 0.0 0.00 0.00 0.00 95 1017.0
20260507042008 5 248 0.0 1.6 0.00 0.00 0.00 95 1016.9
20260507041505 6 248 0.0 1.6 0.00 0.00 0.00 95 1017.1
20260507041005 6 248 0.0 1.6 0.00 0.00 0.00 96 1017.1
20260507040007 5 334 0.0 1.6 0.00 0.00 0.00 97 1017.0
20260507035505 5 328 0.0 1.6 0.00 0.00 0.00 97 1016.9
20260507035005 5 339 0.0 1.6 0.00 0.00 0.00 97 1017.1
20260507034505 5 350 0.0 1.6 0.00 0.00 0.00 96 1017.0
20260507034005 5 0 0.0 0.0 0.00 0.00 0.00 96 1017.1
20260507033508 4 0 0.0 0.0 0.00 0.00 0.00 95 1017.1
20260507032506 5 0 0.0 0.0 0.00 0.00 0.00 95 1017.2
20260507032005 5 0 0.0 0.0 0.00 0.00 0.00 96 1017.2
20260507031505 5 0 0.0 0.0 0.00 0.00 0.00 96 1017.4
20260507031005 5 0 0.0 0.0 0.00 0.00 0.00 96 1017.5
20260507030505 5 0 0.0 0.0 0.00 0.00 0.00 96 1017.6
20260507030005 5 0 0.0 0.0 0.00 0.00 0.00 96 1017.5
20260507025505 5 0 0.0 0.0 0.00 0.00 0.00 96 1017.6
20260507025006 5 0 0.0 0.0 0.00 0.00 0.00 95 1017.5
20260507024506 4 0 0.0 0.0 0.00 0.00 0.00 94 1017.5
20260507024005 4 0 0.0 0.0 0.00 0.00 0.00 94 1017.4
20260507023508 4 0 0.0 0.0 0.00 0.00 0.00 94 1017.4
20260507023006 4 0 0.0 0.0 0.00 0.00 0.00 94 1017.5
20260507022505 4 0 0.0 0.0 0.00 0.00 0.00 95 1017.4
20260507021505 5 0 0.0 0.0 0.00 0.00 0.00 96 1017.3
20260507021005 5 314 0.0 1.6 0.00 0.00 0.00 96 1017.3
20260507020505 5 314 0.0 1.6 0.00 0.00 0.00 96 1017.6
20260507020006 5 314 0.0 1.6 0.00 0.00 0.00 95 1017.5
20260507015506 4 314 0.0 1.6 0.00 0.00 0.00 94 1017.6
20260507014505 4 0 0.0 0.0 0.00 0.00 0.00 94 1017.5
20260507013505 4 0 0.0 0.0 0.00 0.00 0.00 94 1017.5
20260507013006 5 0 0.0 0.0 0.00 0.00 0.00 94 1017.5
20260507012513 5 0 0.0 0.0 0.00 0.00 0.00 95 1017.5
20260507012008 5 328 0.0 1.6 0.00 0.00 0.00 95 1017.5
20260507011505 5 328 0.0 1.6 0.00 0.00 0.00 95 1017.6
20260507011005 5 0 0.0 0.0 0.00 0.00 0.00 94 1017.3
20260507010505 4 0 0.0 0.0 0.00 0.00 0.00 93 1017.4
20260507005506 5 0 0.0 0.0 0.00 0.00 0.00 93 1017.7
20260507004506 5 0 0.0 0.0 0.00 0.00 0.00 93 1017.4
20260507004005 5 0 0.0 0.0 0.00 0.00 0.00 92 1017.5
20260507003505 5 0 0.0 0.0 0.00 0.00 0.00 92 1017.5
20260507003006 5 0 0.0 0.0 0.00 0.00 0.00 92 1017.5
20260507001505 5 0 0.0 0.0 0.00 0.00 0.00 92 1017.3
20260507000505 5 0 0.0 0.0 0.00 0.00 0.00 92 1017.5
20260507000005 5 0 0.0 0.0 0.00 0.00 0.00 92 1017.4
20260506235505 6 0 0.0 0.0 0.00 0.00 0.00 92 1017.4
20260506235005 6 0 0.0 0.0 0.00 0.00 0.00 93 1017.3
20260506234505 6 0 0.0 0.0 0.00 0.00 0.00 92 1017.4
20260506234005 5 0 0.0 0.0 0.00 0.00 0.00 92 1017.4
20260506233505 5 0 0.0 0.0 0.00 0.00 0.00 91 1017.5
20260506232006 5 0 0.0 0.0 0.00 0.00 0.00 89 1017.6
20260506231005 6 0 0.0 0.0 0.00 0.00 0.00 89 1017.9
20260506230505 6 0 0.0 0.0 0.00 0.00 0.00 90 1017.9
20260506230006 6 0 0.0 0.0 0.00 0.00 0.00 90 1017.8
20260506225505 6 1 0.0 1.6 0.00 0.00 0.00 90 1018.0
20260506225005 6 1 0.0 1.6 0.00 0.00 0.00 90 1018.1
20260506224506 6 1 0.0 1.6 0.00 0.00 0.00 90 1018.1
20260506224005 6 0 0.0 0.0 0.00 0.00 0.00 91 1018.3
20260506223007 6 0 0.0 0.0 0.00 0.00 0.00 91 1018.3
20260506222508 6 0 0.0 0.0 0.00 0.00 0.00 90 1018.3
20260506221508 6 0 0.0 0.0 0.00 0.00 0.00 89 1018.3
20260506221006 6 0 0.0 0.0 0.00 0.00 0.00 89 1018.6
20260506220506 6 0 0.0 0.0 0.00 0.00 0.00 88 1018.5
20260506220006 6 0 0.0 0.0 0.00 0.00 0.00 88 1018.3
20260506215505 6 0 0.0 0.0 0.00 0.00 0.00 88 1018.4
20260506215006 7 0 0.0 0.0 0.00 0.00 0.00 88 1018.5
20260506214505 7 0 0.0 0.0 0.00 0.00 0.00 87 1018.5
20260506214006 7 0 0.0 0.0 0.00 0.00 0.00 86 1018.5
20260506213508 7 0 0.0 0.0 0.00 0.00 0.00 86 1018.6
20260506213006 7 0 0.0 0.0 0.00 0.00 0.00 82 1018.6
20260506212505 7 0 0.0 0.0 0.00 0.00 0.00 82 1018.4
20260506212005 7 0 0.0 0.0 0.00 0.00 0.00 83 1018.4
20260506211505 7 0 0.0 0.0 0.00 0.00 0.00 83 1018.6
20260506211007 7 0 0.0 0.0 0.00 0.00 0.00 87 1018.6
20260506210504 7 0 0.0 0.0 0.00 0.00 0.00 86 1018.7
20260506210009 7 0 0.0 0.0 0.00 0.00 0.00 86 1018.6
20260506205505 7 0 0.0 0.0 0.00 0.00 0.00 80 1018.7
20260506205010 7 0 0.0 0.0 0.00 0.00 0.00 79 1018.8
20260506204505 7 0 0.0 0.0 0.00 0.00 0.00 79 1018.6
20260506204005 8 0 0.0 0.0 0.00 0.00 0.00 78 1018.5
20260506203506 8 0 0.0 0.0 0.00 0.00 0.00 77 1018.6
20260506202506 8 0 0.0 0.0 0.00 0.00 0.00 75 1018.7
20260506202020 8 0 0.0 0.0 0.00 0.00 0.00 75 1018.6
20260506201505 8 0 0.0 0.0 0.00 0.00 0.00 75 1018.7
20260506200520 9 1 0.0 1.6 0.00 0.00 0.00 75 1018.9
20260506200005 9 8 0.0 3.2 0.00 0.00 0.00 75 1018.8
20260506195508 9 8 0.0 3.2 0.00 0.00 0.00 75 1018.5
20260506194505 9 0 0.0 0.0 0.00 0.00 0.00 74 1018.5
20260506194005 10 0 0.0 0.0 0.00 0.00 0.00 74 1018.5
20260506193505 10 0 0.0 0.0 0.00 0.00 0.00 73 1018.3
20260506192505 10 0 0.0 0.0 0.00 0.00 0.00 72 1018.1
20260506192005 11 1 0.0 3.2 0.00 0.00 0.00 71 1018.2
20260506191505 11 350 0.0 3.2 0.00 0.00 0.00 71 1017.9
20260506191005 11 225 0.0 1.6 0.00 0.00 0.00 70 1017.9
20260506190507 11 222 0.0 1.6 0.00 0.00 0.00 70 1017.9
20260506190006 11 0 0.0 0.0 0.00 0.00 0.00 68 1018.0
20260506185505 11 0 0.0 0.0 0.00 0.00 0.00 68 1018.1
20260506184005 12 0 0.0 0.0 0.00 0.00 0.00 64 1017.9
20260506183505 12 0 0.0 0.0 0.00 0.00 0.00 61 1018.0
20260506183006 12 0 0.0 0.0 0.00 0.00 0.00 59 1018.0
20260506182007 13 270 1.6 4.8 0.00 0.00 0.00 55 1017.8
20260506181506 14 270 1.6 4.8 0.00 0.00 0.00 53 1017.8
20260506181005 14 270 0.0 3.2 0.00 0.00 0.00 53 1017.7
20260506175505 15 261 6.4 9.7 0.00 0.00 0.00 49 1017.3
20260506175006 15 263 6.4 8.0 0.00 0.00 0.00 49 1017.4
20260506174506 15 270 6.4 11.3 0.00 0.00 0.00 49 1017.3
20260506174006 15 275 8.0 16.1 0.00 0.00 0.00 48 1017.2
20260506173021 16 203 12.9 16.1 0.00 0.00 0.00 47 1017.1
20260506172505 16 258 11.3 17.7 0.00 0.00 0.00 47 1017.1
20260506171506 16 279 6.4 17.7 0.00 0.00 0.00 48 1016.9
20260506170505 16 266 3.2 8.0 0.00 0.00 0.00 49 1016.7
20260506170006 16 260 1.6 8.0 0.00 0.00 0.00 50 1016.7
20260506165512 16 259 1.6 6.4 0.00 0.00 0.00 50 1016.8
20260506165005 16 247 1.6 6.4 0.00 0.00 0.00 48 1016.4
20260506164505 16 236 1.6 4.8 0.00 0.00 0.00 48 1016.6
20260506164005 17 265 6.4 16.1 0.00 0.00 0.00 47 1016.7
20260506163505 17 286 8.0 16.1 0.00 0.00 0.00 46 1016.4
20260506163005 17 295 6.4 12.9 0.00 0.00 0.00 44 1016.5
20260506162505 17 270 6.4 11.3 0.00 0.00 0.00 43 1016.5